Location: Angwan Shehu
(11.2514°N, 7.4613°E)
Time: 01:55:03
(UTC+00:00)

Tiros 1 - Pass Details

Date: 28 April 2021
Orbit: 630 x 664 km, 48.4° (Epoch: 06 May)

Event Time Altitude Azimuth Distance (km) Brightness Sun altitude
Rises 15:03:04 0° 286° (WNW) 2,904 11.5 37.5°
Reaches altitude 10° 15:06:46 10° 256° (WSW) 2,001 10.8 36.6°
Maximum altitude 15:08:34 12° 233° (SW) 1,864 10.2 36.2°
Drops below altitude 10° 15:10:23 10° 209° (SSW) 2,006 10.0 35.7°
Sets 15:14:08 0° 179° (S) 2,920 10.4 34.8°
